| time (UTC) | temp C | wind direction | speed KPH | gust KPH | rain 1hr cm | rain 24hr cm | rain mn cm | humidity % | barometer mb |
| 20260906044553 | 15 | 0 | 0.0 | 3.2 | 0.00 | 0.00 | 0.00 | 93 | 1013.6 |
| 20260906044025 | 15 | 0 | 0.0 | 3.2 | 0.00 | 0.00 | 0.00 | 94 | 1013.5 |
| 20260906043529 | 15 | 0 | 0.0 | 3.2 | 0.00 | 0.00 | 0.00 | 93 | 1013.5 |
| 20260906043056 | 15 | 0 | 0.0 | 3.2 | 0.00 | 0.00 | 0.00 | 93 | 1013.4 |
| 20260906042523 | 16 | 0 | 0.0 | 3.2 | 0.00 | 0.00 | 0.00 | 94 | 1013.5 |
| 20260906042026 | 16 | 0 | 0.0 | 3.2 | 0.00 | 0.00 | 0.00 | 94 | 1013.3 |
| 20260906041548 | 16 | 0 | 0.0 | 3.2 | 0.00 | 0.00 | 0.00 | 94 | 1013.4 |
| 20260906041025 | 16 | 98 | 0.0 | 3.2 | 0.00 | 0.00 | 0.00 | 93 | 1013.4 |
| 20260906040524 | 16 | 0 | 0.0 | 3.2 | 0.00 | 0.00 | 0.00 | 93 | 1013.4 |
| 20260906040048 | 16 | 0 | 0.0 | 3.2 | 0.00 | 0.00 | 0.00 | 93 | 1013.4 |
| 20260906035524 | 16 | 0 | 0.0 | 1.6 | 0.00 | 0.00 | 0.00 | 93 | 1013.5 |
| 20260906035024 | 16 | 0 | 0.0 | 3.2 | 0.00 | 0.00 | 0.00 | 93 | 1013.6 |
| 20260906034559 | 16 | 0 | 0.0 | 3.2 | 0.00 | 0.00 | 0.00 | 93 | 1013.4 |
| 20260906034028 | 16 | 79 | 1.6 | 3.2 | 0.00 | 0.00 | 0.00 | 93 | 1013.3 |
| 20260906033524 | 16 | 0 | 0.0 | 3.2 | 0.00 | 0.00 | 0.00 | 93 | 1013.2 |
| 20260906033046 | 16 | 0 | 0.0 | 1.6 | 0.00 | 0.00 | 0.00 | 93 | 1013.2 |
| 20260906032523 | 16 | 0 | 0.0 | 0.0 | 0.00 | 0.00 | 0.00 | 93 | 1013.2 |
| 20260906032024 | 16 | 0 | 0.0 | 3.2 | 0.00 | 0.00 | 0.00 | 93 | 1013.3 |
| 20260906031549 | 16 | 0 | 0.0 | 3.2 | 0.00 | 0.00 | 0.00 | 92 | 1013.2 |
| 20260906031024 | 16 | 0 | 0.0 | 3.2 | 0.00 | 0.00 | 0.00 | 92 | 1013.2 |
| 20260906030526 | 16 | 0 | 0.0 | 3.2 | 0.00 | 0.00 | 0.00 | 92 | 1013.2 |
| 20260906030046 | 16 | 0 | 0.0 | 3.2 | 0.00 | 0.00 | 0.00 | 92 | 1013.2 |
| 20260906025525 | 16 | 0 | 0.0 | 3.2 | 0.00 | 0.00 | 0.00 | 92 | 1013.2 |
| 20260906025024 | 16 | 78 | 0.0 | 3.2 | 0.00 | 0.00 | 0.00 | 92 | 1013.2 |
| 20260906024547 | 16 | 0 | 0.0 | 0.0 | 0.00 | 0.00 | 0.00 | 91 | 1013.2 |
| 20260906024026 | 16 | 0 | 0.0 | 0.0 | 0.00 | 0.00 | 0.00 | 91 | 1013.2 |
| 20260906023524 | 16 | 0 | 0.0 | 0.0 | 0.00 | 0.00 | 0.00 | 92 | 1013.2 |
| 20260906023045 | 16 | 0 | 0.0 | 0.0 | 0.00 | 0.00 | 0.00 | 91 | 1013.1 |
| 20260906022528 | 16 | 0 | 0.0 | 3.2 | 0.00 | 0.00 | 0.00 | 91 | 1013.1 |
| 20260906022024 | 16 | 0 | 0.0 | 3.2 | 0.00 | 0.00 | 0.00 | 91 | 1013.1 |
| 20260906021547 | 16 | 0 | 0.0 | 3.2 | 0.00 | 0.00 | 0.00 | 91 | 1013.1 |
| 20260906021023 | 16 | 0 | 0.0 | 3.2 | 0.00 | 0.00 | 0.00 | 91 | 1013.2 |
| 20260906020526 | 16 | 0 | 0.0 | 3.2 | 0.00 | 0.00 | 0.00 | 91 | 1013.1 |
| 20260906020059 | 16 | 0 | 0.0 | 3.2 | 0.00 | 0.00 | 0.00 | 91 | 1013.0 |
| 20260906015527 | 16 | 0 | 0.0 | 3.2 | 0.00 | 0.00 | 0.00 | 91 | 1013.1 |
| 20260906015024 | 17 | 0 | 0.0 | 3.2 | 0.00 | 0.00 | 0.00 | 90 | 1013.0 |
| 20260906014548 | 17 | 0 | 0.0 | 3.2 | 0.00 | 0.00 | 0.00 | 90 | 1013.0 |
| 20260906014025 | 17 | 79 | 0.0 | 1.6 | 0.00 | 0.00 | 0.00 | 90 | 1013.1 |
| 20260906013524 | 17 | 0 | 0.0 | 1.6 | 0.00 | 0.00 | 0.00 | 90 | 1013.0 |
| 20260906013102 | 17 | 0 | 0.0 | 3.2 | 0.00 | 0.00 | 0.00 | 89 | 1013.0 |
| 20260906012524 | 17 | 0 | 0.0 | 3.2 | 0.00 | 0.00 | 0.00 | 89 | 1013.0 |
| 20260906012024 | 17 | 0 | 0.0 | 0.0 | 0.00 | 0.00 | 0.00 | 89 | 1013.0 |
| 20260906011547 | 17 | 0 | 0.0 | 1.6 | 0.00 | 0.00 | 0.00 | 89 | 1012.9 |
| 20260906011030 | 17 | 0 | 0.0 | 3.2 | 0.00 | 0.00 | 0.00 | 88 | 1012.8 |
| 20260906010527 | 17 | 0 | 1.6 | 3.2 | 0.00 | 0.00 | 0.00 | 88 | 1012.8 |
| 20260906010054 | 17 | 0 | 0.0 | 0.0 | 0.00 | 0.00 | 0.00 | 87 | 1012.7 |
| 20260906005523 | 17 | 0 | 0.0 | 0.0 | 0.00 | 0.00 | 0.00 | 87 | 1012.7 |
| 20260906005024 | 17 | 0 | 0.0 | 0.0 | 0.00 | 0.00 | 0.00 | 87 | 1012.6 |
| 20260906004546 | 18 | 0 | 0.0 | 3.2 | 0.00 | 0.00 | 0.00 | 86 | 1012.5 |
| 20260906004027 | 18 | 0 | 0.0 | 3.2 | 0.00 | 0.00 | 0.00 | 86 | 1012.3 |
| 20260906003525 | 18 | 31 | 0.0 | 3.2 | 0.00 | 0.00 | 0.00 | 84 | 1012.4 |
| 20260906003042 | 18 | 0 | 0.0 | 3.2 | 0.00 | 0.00 | 0.00 | 84 | 1012.5 |
| 20260906002523 | 18 | 0 | 0.0 | 3.2 | 0.00 | 0.00 | 0.00 | 84 | 1012.5 |
| 20260906002024 | 18 | 31 | 0.0 | 3.2 | 0.00 | 0.00 | 0.00 | 84 | 1012.3 |
| 20260906001544 | 18 | 0 | 0.0 | 3.2 | 0.00 | 0.00 | 0.00 | 83 | 1012.3 |
| 20260906001023 | 19 | 0 | 0.0 | 3.2 | 0.00 | 0.00 | 0.00 | 81 | 1012.4 |
| 20260906000525 | 19 | 40 | 0.0 | 3.2 | 0.00 | 0.00 | 0.00 | 81 | 1012.5 |
| 20260906000058 | 19 | 40 | 0.0 | 3.2 | 0.00 | 0.00 | 0.00 | 80 | 1012.3 |
| 20260905235524 | 19 | 0 | 0.0 | 0.0 | 0.00 | 0.00 | 0.00 | 80 | 1012.2 |
| 20260905235024 | 19 | 0 | 0.0 | 3.2 | 0.00 | 0.00 | 0.00 | 80 | 1012.1 |
| 20260905234558 | 19 | 0 | 0.0 | 3.2 | 0.00 | 0.00 | 0.00 | 79 | 1012.0 |
| 20260905234025 | 20 | 0 | 0.0 | 3.2 | 0.00 | 0.00 | 0.00 | 78 | 1011.9 |
| 20260905233526 | 20 | 0 | 0.0 | 3.2 | 0.00 | 0.00 | 0.00 | 78 | 1011.9 |
| 20260905233045 | 20 | 40 | 0.0 | 3.2 | 0.00 | 0.00 | 0.00 | 79 | 1011.9 |
| 20260905232528 | 20 | 40 | 0.0 | 3.2 | 0.00 | 0.00 | 0.00 | 79 | 1011.9 |
| 20260905232025 | 20 | 40 | 0.0 | 1.6 | 0.00 | 0.00 | 0.00 | 76 | 1011.8 |
| 20260905231544 | 20 | 40 | 0.0 | 3.2 | 0.00 | 0.00 | 0.00 | 78 | 1011.7 |
| 20260905231025 | 21 | 13 | 0.0 | 3.2 | 0.00 | 0.00 | 0.00 | 77 | 1011.7 |
| 20260905230525 | 21 | 0 | 0.0 | 3.2 | 0.00 | 0.00 | 0.00 | 71 | 1011.7 |
| 20260905230047 | 21 | 9 | 0.0 | 3.2 | 0.00 | 0.00 | 0.00 | 71 | 1011.7 |
| 20260905225526 | 21 | 9 | 0.0 | 3.2 | 0.00 | 0.00 | 0.00 | 72 | 1011.7 |
| 20260905225024 | 21 | 0 | 0.0 | 3.2 | 0.00 | 0.00 | 0.00 | 72 | 1011.7 |
| 20260905224549 | 21 | 0 | 0.0 | 3.2 | 0.00 | 0.00 | 0.00 | 70 | 1011.6 |
| 20260905224024 | 22 | 13 | 0.0 | 3.2 | 0.00 | 0.00 | 0.00 | 68 | 1011.6 |
| 20260905223526 | 22 | 25 | 0.0 | 3.2 | 0.00 | 0.00 | 0.00 | 68 | 1011.5 |
| 20260905223047 | 22 | 56 | 0.0 | 3.2 | 0.00 | 0.00 | 0.00 | 66 | 1011.6 |
| 20260905222528 | 22 | 57 | 0.0 | 3.2 | 0.00 | 0.00 | 0.00 | 65 | 1011.5 |
| 20260905222023 | 22 | 67 | 1.6 | 3.2 | 0.00 | 0.00 | 0.00 | 66 | 1011.4 |
| 20260905221553 | 23 | 44 | 0.0 | 3.2 | 0.00 | 0.00 | 0.00 | 67 | 1011.4 |
| 20260905221027 | 23 | 0 | 0.0 | 3.2 | 0.00 | 0.00 | 0.00 | 65 | 1011.4 |
| 20260905220524 | 23 | 0 | 0.0 | 3.2 | 0.00 | 0.00 | 0.00 | 64 | 1011.4 |
| 20260905220051 | 23 | 323 | 0.0 | 3.2 | 0.00 | 0.00 | 0.00 | 62 | 1011.3 |
| 20260905215526 | 23 | 325 | 1.6 | 3.2 | 0.00 | 0.00 | 0.00 | 62 | 1011.2 |
| 20260905215025 | 23 | 36 | 1.6 | 4.8 | 0.00 | 0.00 | 0.00 | 61 | 1011.2 |
| 20260905214542 | 23 | 348 | 1.6 | 4.8 | 0.00 | 0.00 | 0.00 | 60 | 1011.0 |
| 20260905214025 | 23 | 319 | 1.6 | 4.8 | 0.00 | 0.00 | 0.00 | 62 | 1011.1 |
| 20260905213526 | 23 | 306 | 3.2 | 4.8 | 0.00 | 0.00 | 0.00 | 62 | 1010.9 |
| 20260905213050 | 23 | 343 | 1.6 | 4.8 | 0.00 | 0.00 | 0.00 | 61 | 1011.0 |
| 20260905212523 | 23 | 74 | 1.6 | 4.8 | 0.00 | 0.00 | 0.00 | 62 | 1011.0 |
| 20260905212024 | 23 | 331 | 1.6 | 3.2 | 0.00 | 0.00 | 0.00 | 64 | 1010.9 |
| 20260905211546 | 23 | 53 | 0.0 | 3.2 | 0.00 | 0.00 | 0.00 | 61 | 1010.9 |
| 20260905211024 | 23 | 28 | 0.0 | 3.2 | 0.00 | 0.00 | 0.00 | 62 | 1010.8 |
| 20260905210524 | 23 | 55 | 0.0 | 3.2 | 0.00 | 0.00 | 0.00 | 65 | 1010.7 |
| 20260905210056 | 23 | 59 | 0.0 | 3.2 | 0.00 | 0.00 | 0.00 | 65 | 1010.5 |
| 20260905205524 | 23 | 61 | 0.0 | 3.2 | 0.00 | 0.00 | 0.00 | 66 | 1010.4 |
| 20260905205026 | 23 | 76 | 1.6 | 3.2 | 0.00 | 0.00 | 0.00 | 65 | 1010.4 |
| 20260905204543 | 23 | 57 | 0.0 | 3.2 | 0.00 | 0.00 | 0.00 | 64 | 1010.3 |
| 20260905204025 | 23 | 0 | 0.0 | 4.8 | 0.00 | 0.00 | 0.00 | 63 | 1010.4 |
| 20260905203524 | 23 | 321 | 1.6 | 4.8 | 0.00 | 0.00 | 0.00 | 63 | 1010.4 |
| 20260905203108 | 23 | 317 | 1.6 | 3.2 | 0.00 | 0.00 | 0.00 | 62 | 1010.4 |
| 20260905202524 | 23 | 339 | 1.6 | 3.2 | 0.00 | 0.00 | 0.00 | 63 | 1010.4 |
| 20260905202024 | 23 | 57 | 1.6 | 3.2 | 0.00 | 0.00 | 0.00 | 63 | 1010.5 |
| 20260905201546 | 23 | 32 | 0.0 | 3.2 | 0.00 | 0.00 | 0.00 | 63 | 1010.6 |
| 20260905201024 | 23 | 341 | 1.6 | 3.2 | 0.00 | 0.00 | 0.00 | 65 | 1010.5 |
| 20260905200524 | 23 | 16 | 0.0 | 3.2 | 0.00 | 0.00 | 0.00 | 65 | 1010.6 |
| 20260905200044 | 23 | 341 | 0.0 | 3.2 | 0.00 | 0.00 | 0.00 | 69 | 1010.6 |
| 20260905195524 | 23 | 0 | 0.0 | 3.2 | 0.00 | 0.00 | 0.00 | 68 | 1010.6 |
| 20260905195027 | 23 | 0 | 0.0 | 3.2 | 0.00 | 0.00 | 0.00 | 66 | 1010.6 |
| 20260905194542 | 23 | 0 | 0.0 | 3.2 | 0.00 | 0.00 | 0.00 | 66 | 1010.6 |
| 20260905194023 | 23 | 0 | 0.0 | 3.2 | 0.00 | 0.00 | 0.00 | 63 | 1010.7 |
| 20260905193527 | 23 | 339 | 0.0 | 3.2 | 0.00 | 0.00 | 0.00 | 64 | 1010.6 |
| 20260905193046 | 24 | 326 | 1.6 | 3.2 | 0.00 | 0.00 | 0.00 | 61 | 1010.7 |
| 20260905192525 | 24 | 338 | 0.0 | 3.2 | 0.00 | 0.00 | 0.00 | 61 | 1010.6 |
| 20260905192026 | 24 | 343 | 0.0 | 3.2 | 0.00 | 0.00 | 0.00 | 61 | 1010.7 |
| 20260905191547 | 23 | 25 | 0.0 | 3.2 | 0.00 | 0.00 | 0.00 | 61 | 1010.7 |
| 20260905191025 | 24 | 322 | 0.0 | 4.8 | 0.00 | 0.00 | 0.00 | 61 | 1010.7 |
| 20260905190524 | 24 | 347 | 0.0 | 4.8 | 0.00 | 0.00 | 0.00 | 61 | 1010.7 |
| 20260905190047 | 24 | 306 | 1.6 | 4.8 | 0.00 | 0.00 | 0.00 | 59 | 1010.7 |
| 20260905185524 | 24 | 350 | 1.6 | 4.8 | 0.00 | 0.00 | 0.00 | 60 | 1010.7 |
| 20260905185026 | 24 | 81 | 1.6 | 4.8 | 0.00 | 0.00 | 0.00 | 59 | 1010.7 |
| 20260905184601 | 24 | 88 | 1.6 | 4.8 | 0.00 | 0.00 | 0.00 | 60 | 1010.7 |
| 20260905184025 | 23 | 360 | 1.6 | 3.2 | 0.00 | 0.00 | 0.00 | 62 | 1010.7 |
| 20260905183525 | 23 | 341 | 1.6 | 4.8 | 0.00 | 0.00 | 0.00 | 63 | 1010.8 |
| 20260905183047 | 23 | 44 | 1.6 | 8.0 | 0.00 | 0.00 | 0.00 | 63 | 1010.8 |
| 20260905182525 | 23 | 319 | 3.2 | 9.7 | 0.00 | 0.00 | 0.00 | 62 | 1010.9 |
| 20260905182026 | 23 | 69 | 3.2 | 11.3 | 0.00 | 0.00 | 0.00 | 62 | 1010.8 |
| 20260905181546 | 24 | 57 | 3.2 | 11.3 | 0.00 | 0.00 | 0.00 | 62 | 1010.8 |
| 20260905181024 | 24 | 360 | 1.6 | 4.8 | 0.00 | 0.00 | 0.00 | 61 | 1010.8 |
| 20260905180525 | 23 | 59 | 1.6 | 4.8 | 0.00 | 0.00 | 0.00 | 63 | 1010.8 |
| 20260905180042 | 23 | 110 | 1.6 | 4.8 | 0.00 | 0.00 | 0.00 | 64 | 1010.9 |
| 20260905175525 | 23 | 183 | 1.6 | 4.8 | 0.00 | 0.00 | 0.00 | 65 | 1011.0 |
| 20260905175024 | 23 | 12 | 1.6 | 8.0 | 0.00 | 0.00 | 0.00 | 65 | 1011.1 |
| 20260905174551 | 23 | 90 | 3.2 | 8.0 | 0.00 | 0.00 | 0.00 | 64 | 1011.0 |
| 20260905174024 | 23 | 53 | 0.0 | 3.2 | 0.00 | 0.00 | 0.00 | 64 | 1011.0 |
| 20260905173526 | 23 | 68 | 1.6 | 6.4 | 0.00 | 0.00 | 0.00 | 66 | 1011.0 |
| 20260905173046 | 23 | 342 | 1.6 | 6.4 | 0.00 | 0.00 | 0.00 | 64 | 1011.0 |
| 20260905172525 | 23 | 15 | 0.0 | 6.4 | 0.00 | 0.00 | 0.00 | 67 | 1011.1 |
| 20260905172025 | 23 | 314 | 0.0 | 6.4 | 0.00 | 0.00 | 0.00 | 64 | 1011.1 |
| 20260905171557 | 23 | 313 | 3.2 | 6.4 | 0.00 | 0.00 | 0.00 | 63 | 1011.2 |
| 20260905171024 | 23 | 78 | 3.2 | 6.4 | 0.00 | 0.00 | 0.00 | 61 | 1011.1 |
| 20260905170525 | 23 | 44 | 1.6 | 6.4 | 0.00 | 0.00 | 0.00 | 61 | 1011.1 |
| 20260905170046 | 23 | 80 | 1.6 | 6.4 | 0.00 | 0.00 | 0.00 | 65 | 1011.2 |
| 20260905165531 | 23 | 313 | 3.2 | 6.4 | 0.00 | 0.00 | 0.00 | 64 | 1011.2 |
| 20260905165027 | 23 | 315 | 1.6 | 4.8 | 0.00 | 0.00 | 0.00 | 66 | 1011.2 |
| 20260905164551 | 23 | 326 | 0.0 | 6.4 | 0.00 | 0.00 | 0.00 | 66 | 1011.2 |
| 20260905164027 | 23 | 309 | 1.6 | 6.4 | 0.00 | 0.00 | 0.00 | 65 | 1011.1 |
| 20260905163526 | 23 | 69 | 1.6 | 6.4 | 0.00 | 0.00 | 0.00 | 66 | 1011.1 |
| 20260905163053 | 22 | 323 | 1.6 | 8.0 | 0.00 | 0.00 | 0.00 | 67 | 1011.2 |
| 20260905162526 | 22 | 348 | 3.2 | 8.0 | 0.00 | 0.00 | 0.00 | 64 | 1011.2 |
| 20260905162025 | 22 | 223 | 1.6 | 3.2 | 0.00 | 0.00 | 0.00 | 67 | 1011.2 |
| 20260905161544 | 22 | 304 | 1.6 | 3.2 | 0.00 | 0.00 | 0.00 | 69 | 1011.2 |
| 20260905161025 | 22 | 0 | 1.6 | 6.4 | 0.00 | 0.00 | 0.00 | 69 | 1011.2 |
| 20260905160525 | 21 | 336 | 1.6 | 6.4 | 0.00 | 0.00 | 0.00 | 69 | 1011.2 |
| 20260905160042 | 21 | 57 | 1.6 | 4.8 | 0.00 | 0.00 | 0.00 | 69 | 1011.4 |
| 20260905155524 | 21 | 349 | 1.6 | 4.8 | 0.00 | 0.00 | 0.00 | 68 | 1011.4 |
| 20260905155024 | 22 | 55 | 1.6 | 4.8 | 0.00 | 0.00 | 0.00 | 70 | 1011.3 |
| 20260905154603 | 22 | 123 | 1.6 | 4.8 | 0.00 | 0.00 | 0.00 | 71 | 1011.2 |
| 20260905154028 | 22 | 325 | 0.0 | 3.2 | 0.00 | 0.00 | 0.00 | 70 | 1011.2 |
| 20260905153526 | 22 | 59 | 1.6 | 6.4 | 0.00 | 0.00 | 0.00 | 69 | 1011.3 |
| 20260905153047 | 22 | 348 | 1.6 | 6.4 | 0.00 | 0.00 | 0.00 | 69 | 1011.3 |
| 20260905152524 | 22 | 315 | 1.6 | 6.4 | 0.00 | 0.00 | 0.00 | 71 | 1011.3 |
| 20260905152025 | 22 | 321 | 3.2 | 6.4 | 0.00 | 0.00 | 0.00 | 69 | 1011.4 |
| 20260905151544 | 22 | 337 | 1.6 | 3.2 | 0.00 | 0.00 | 0.00 | 72 | 1011.5 |
| 20260905151025 | 22 | 315 | 0.0 | 3.2 | 0.00 | 0.00 | 0.00 | 72 | 1011.4 |
| 20260905150526 | 21 | 352 | 1.6 | 4.8 | 0.00 | 0.00 | 0.00 | 73 | 1011.5 |
| 20260905150045 | 21 | 111 | 1.6 | 4.8 | 0.00 | 0.00 | 0.00 | 74 | 1011.4 |
| 20260905145525 | 21 | 79 | 1.6 | 3.2 | 0.00 | 0.00 | 0.00 | 73 | 1011.5 |
| 20260905145024 | 21 | 63 | 1.6 | 4.8 | 0.00 | 0.00 | 0.00 | 73 | 1011.5 |
| 20260905144547 | 21 | 360 | 1.6 | 4.8 | 0.00 | 0.00 | 0.00 | 73 | 1011.4 |
| 20260905144024 | 21 | 344 | 1.6 | 4.8 | 0.00 | 0.00 | 0.00 | 74 | 1011.4 |
| 20260905143525 | 20 | 336 | 1.6 | 4.8 | 0.00 | 0.00 | 0.00 | 74 | 1011.4 |
| 20260905143052 | 20 | 9 | 0.0 | 4.8 | 0.00 | 0.00 | 0.00 | 77 | 1011.4 |
| 20260905142524 | 20 | 9 | 1.6 | 4.8 | 0.00 | 0.00 | 0.00 | 75 | 1011.3 |
| 20260905142025 | 20 | 74 | 1.6 | 6.4 | 0.00 | 0.00 | 0.00 | 75 | 1011.2 |
| 20260905141553 | 20 | 257 | 3.2 | 6.4 | 0.00 | 0.00 | 0.00 | 75 | 1011.3 |
| 20260905141025 | 20 | 140 | 1.6 | 4.8 | 0.00 | 0.00 | 0.00 | 77 | 1011.3 |
| 20260905140523 | 20 | 333 | 0.0 | 4.8 | 0.00 | 0.00 | 0.00 | 79 | 1011.2 |
| 20260905140055 | 20 | 66 | 1.6 | 4.8 | 0.00 | 0.00 | 0.00 | 78 | 1011.3 |
| 20260905135524 | 20 | 350 | 1.6 | 4.8 | 0.00 | 0.00 | 0.00 | 79 | 1011.4 |
| 20260905135025 | 20 | 0 | 1.6 | 4.8 | 0.00 | 0.00 | 0.00 | 79 | 1011.3 |
| 20260905134547 | 19 | 86 | 1.6 | 4.8 | 0.00 | 0.00 | 0.00 | 81 | 1011.3 |
| 20260905134024 | 19 | 352 | 1.6 | 4.8 | 0.00 | 0.00 | 0.00 | 81 | 1011.4 |
| 20260905133524 | 19 | 36 | 1.6 | 4.8 | 0.00 | 0.00 | 0.00 | 81 | 1011.4 |
| 20260905133047 | 19 | 67 | 1.6 | 3.2 | 0.00 | 0.00 | 0.00 | 82 | 1011.5 |
| 20260905132526 | 19 | 323 | 1.6 | 8.0 | 0.00 | 0.00 | 0.00 | 83 | 1011.5 |
| 20260905132024 | 18 | 352 | 3.2 | 8.0 | 0.00 | 0.00 | 0.00 | 83 | 1011.4 |
| 20260905131542 | 18 | 352 | 1.6 | 4.8 | 0.00 | 0.00 | 0.00 | 83 | 1011.4 |
| 20260905131025 | 18 | 51 | 1.6 | 4.8 | 0.00 | 0.00 | 0.00 | 85 | 1011.4 |
| 20260905130523 | 18 | 12 | 0.0 | 3.2 | 0.00 | 0.00 | 0.00 | 86 | 1011.5 |
| 20260905130049 | 18 | 0 | 0.0 | 3.2 | 0.00 | 0.00 | 0.00 | 87 | 1011.6 |
| 20260905125524 | 18 | 0 | 0.0 | 3.2 | 0.00 | 0.00 | 0.00 | 87 | 1011.5 |
| 20260905125026 | 18 | 334 | 0.0 | 4.8 | 0.00 | 0.00 | 0.00 | 87 | 1011.5 |
| 20260905124544 | 18 | 0 | 1.6 | 4.8 | 0.00 | 0.00 | 0.00 | 87 | 1011.6 |
| 20260905124024 | 18 | 309 | 1.6 | 4.8 | 0.00 | 0.00 | 0.00 | 87 | 1011.6 |
| 20260905123523 | 17 | 51 | 0.0 | 3.2 | 0.00 | 0.00 | 0.00 | 88 | 1011.7 |
| 20260905123046 | 17 | 15 | 0.0 | 3.2 | 0.00 | 0.00 | 0.00 | 90 | 1011.8 |
| 20260905122524 | 17 | 341 | 0.0 | 3.2 | 0.00 | 0.00 | 0.00 | 91 | 1011.7 |
| 20260905122025 | 17 | 24 | 0.0 | 3.2 | 0.00 | 0.00 | 0.00 | 91 | 1011.7 |
| 20260905121544 | 17 | 0 | 0.0 | 3.2 | 0.00 | 0.00 | 0.00 | 92 | 1011.7 |
| 20260905121026 | 16 | 0 | 0.0 | 3.2 | 0.00 | 0.00 | 0.00 | 92 | 1011.7 |
| 20260905120525 | 16 | 0 | 0.0 | 3.2 | 0.00 | 0.00 | 0.00 | 93 | 1011.6 |
| 20260905120050 | 16 | 343 | 0.0 | 3.2 | 0.00 | 0.00 | 0.00 | 94 | 1011.6 |
| 20260905115525 | 16 | 55 | 0.0 | 3.2 | 0.00 | 0.00 | 0.00 | 95 | 1011.5 |
| 20260905115026 | 16 | 92 | 0.0 | 3.2 | 0.00 | 0.00 | 0.00 | 96 | 1011.5 |
| 20260905114603 | 15 | 92 | 0.0 | 3.2 | 0.00 | 0.00 | 0.00 | 96 | 1011.4 |
| 20260905114027 | 15 | 92 | 0.0 | 3.2 | 0.00 | 0.00 | 0.00 | 96 | 1011.4 |
| 20260905113523 | 15 | 92 | 0.0 | 3.2 | 0.00 | 0.00 | 0.00 | 96 | 1011.2 |
| 20260905113049 | 15 | 0 | 1.6 | 1.6 | 0.00 | 0.00 | 0.00 | 96 | 1011.1 |
| 20260905112525 | 15 | 92 | 1.6 | 3.2 | 0.00 | 0.00 | 0.00 | 95 | 1011.0 |
| 20260905112030 | 15 | 92 | 1.6 | 3.2 | 0.00 | 0.00 | 0.00 | 95 | 1011.2 |
| 20260905111619 | 15 | 95 | 1.6 | 3.2 | 0.00 | 0.00 | 0.00 | 95 | 1011.1 |
| 20260905111026 | 15 | 90 | 1.6 | 3.2 | 0.00 | 0.00 | 0.00 | 95 | 1011.1 |
| 20260905110526 | 15 | 90 | 0.0 | 3.2 | 0.00 | 0.00 | 0.00 | 95 | 1011.1 |
| 20260905110053 | 15 | 0 | 0.0 | 3.2 | 0.00 | 0.00 | 0.00 | 95 | 1011.0 |
| 20260905105526 | 15 | 0 | 0.0 | 3.2 | 0.00 | 0.00 | 0.00 | 95 | 1011.0 |
| 20260905105029 | 15 | 0 | 0.0 | 3.2 | 0.00 | 0.00 | 0.00 | 95 | 1011.0 |
| 20260905104606 | 15 | 0 | 0.0 | 3.2 | 0.00 | 0.00 | 0.00 | 95 | 1010.8 |
| 20260905104025 | 15 | 0 | 0.0 | 3.2 | 0.00 | 0.00 | 0.00 | 95 | 1010.8 |
| 20260905103524 | 15 | 90 | 0.0 | 3.2 | 0.00 | 0.00 | 0.00 | 95 | 1010.7 |
| 20260905103048 | 15 | 0 | 0.0 | 3.2 | 0.00 | 0.00 | 0.00 | 95 | 1010.6 |
| 20260905102526 | 15 | 0 | 0.0 | 3.2 | 0.00 | 0.00 | 0.00 | 95 | 1010.6 |
| 20260905102024 | 15 | 0 | 0.0 | 3.2 | 0.00 | 0.00 | 0.00 | 95 | 1010.6 |
| 20260905101551 | 15 | 0 | 0.0 | 3.2 | 0.00 | 0.00 | 0.00 | 95 | 1010.5 |
| 20260905101024 | 15 | 0 | 0.0 | 3.2 | 0.00 | 0.00 | 0.00 | 94 | 1010.4 |
| 20260905100524 | 15 | 0 | 0.0 | 3.2 | 0.00 | 0.00 | 0.00 | 95 | 1010.4 |
| 20260905100045 | 15 | 90 | 0.0 | 3.2 | 0.00 | 0.00 | 0.00 | 95 | 1010.4 |
| 20260905095525 | 15 | 90 | 1.6 | 3.2 | 0.00 | 0.00 | 0.00 | 95 | 1010.4 |
| 20260905095025 | 15 | 90 | 1.6 | 3.2 | 0.00 | 0.00 | 0.00 | 94 | 1010.3 |
| 20260905094638 | 15 | 90 | 1.6 | 1.6 | 0.00 | 0.00 | 0.00 | 94 | 1010.4 |
| 20260905094023 | 15 | 90 | 0.0 | 3.2 | 0.00 | 0.00 | 0.00 | 95 | 1010.4 |
| 20260905093527 | 15 | 0 | 0.0 | 3.2 | 0.00 | 0.00 | 0.00 | 95 | 1010.4 |
| 20260905093052 | 15 | 0 | 0.0 | 3.2 | 0.00 | 0.00 | 0.00 | 95 | 1010.3 |
| 20260905092526 | 15 | 90 | 0.0 | 3.2 | 0.00 | 0.00 | 0.00 | 94 | 1010.4 |
| 20260905092028 | 15 | 90 | 0.0 | 3.2 | 0.00 | 0.00 | 0.00 | 94 | 1010.2 |
| 20260905091548 | 15 | 90 | 0.0 | 3.2 | 0.00 | 0.00 | 0.00 | 94 | 1010.2 |
| 20260905091023 | 15 | 0 | 0.0 | 3.2 | 0.00 | 0.00 | 0.00 | 94 | 1010.2 |
| 20260905090525 | 15 | 0 | 0.0 | 3.2 | 0.00 | 0.00 | 0.00 | 94 | 1010.3 |
| 20260905090047 | 15 | 0 | 0.0 | 3.2 | 0.00 | 0.00 | 0.00 | 94 | 1010.3 |
| 20260905085524 | 15 | 0 | 0.0 | 3.2 | 0.00 | 0.46 | 0.00 | 94 | 1010.4 |
| 20260905085031 | 15 | 0 | 0.0 | 3.2 | 0.00 | 0.46 | 0.00 | 94 | 1010.4 |
| 20260905084555 | 15 | 90 | 1.6 | 3.2 | 0.00 | 0.46 | 0.00 | 94 | 1010.3 |
| 20260905084024 | 15 | 90 | 1.6 | 3.2 | 0.00 | 0.46 | 0.00 | 94 | 1010.4 |
| 20260905083524 | 15 | 0 | 0.0 | 3.2 | 0.00 | 0.46 | 0.00 | 94 | 1010.3 |
| 20260905083048 | 15 | 0 | 0.0 | 3.2 | 0.00 | 0.46 | 0.00 | 94 | 1010.2 |
| 20260905082524 | 15 | 0 | 0.0 | 3.2 | 0.00 | 0.46 | 0.00 | 93 | 1010.2 |
| 20260905082024 | 15 | 90 | 0.0 | 3.2 | 0.00 | 0.46 | 0.00 | 93 | 1010.3 |
| 20260905081546 | 15 | 90 | 0.0 | 3.2 | 0.00 | 0.46 | 0.00 | 94 | 1010.2 |
| 20260905081024 | 15 | 0 | 0.0 | 3.2 | 0.00 | 0.46 | 0.00 | 93 | 1010.3 |
| 20260905080527 | 15 | 90 | 0.0 | 3.2 | 0.00 | 0.46 | 0.00 | 93 | 1010.3 |
| 20260905075537 | 15 | 88 | 1.6 | 3.2 | 0.00 | 1.45 | 0.00 | 92 | 1010.4 |
| 20260905075023 | 16 | 57 | 0.0 | 3.2 | 0.00 | 1.45 | 0.00 | 93 | 1010.4 |
| 20260905074556 | 16 | 0 | 0.0 | 3.2 | 0.00 | 1.45 | 0.00 | 93 | 1010.3 |
| 20260905074026 | 16 | 26 | 0.0 | 3.2 | 0.00 | 1.45 | 0.00 | 93 | 1010.3 |
| 20260905073524 | 15 | 39 | 0.0 | 3.2 | 0.00 | 1.45 | 0.00 | 93 | 1010.4 |
| 20260905073105 | 15 | 0 | 0.0 | 3.2 | 0.00 | 1.45 | 0.00 | 93 | 1010.4 |
| 20260905072529 | 16 | 0 | 0.0 | 3.2 | 0.00 | 1.45 | 0.00 | 92 | 1010.4 |
| 20260905072024 | 16 | 39 | 0.0 | 3.2 | 0.00 | 1.45 | 0.00 | 92 | 1010.4 |
| 20260905071549 | 16 | 0 | 0.0 | 3.2 | 0.00 | 1.45 | 0.00 | 92 | 1010.4 |
| 20260905071023 | 16 | 0 | 0.0 | 3.2 | 0.00 | 1.45 | 0.00 | 93 | 1010.4 |
| 20260905070524 | 16 | 42 | 0.0 | 3.2 | 0.00 | 1.45 | 0.00 | 92 | 1010.4 |
| 20260905070048 | 16 | 47 | 0.0 | 3.2 | 0.00 | 1.45 | 0.00 | 91 | 1010.5 |
| 20260905065527 | 16 | 0 | 0.0 | 3.2 | 0.00 | 1.47 | 0.00 | 92 | 1010.6 |
| 20260905065024 | 15 | 48 | 0.0 | 3.2 | 0.00 | 1.47 | 0.00 | 92 | 1010.6 |
| 20260905064546 | 15 | 0 | 0.0 | 3.2 | 0.00 | 1.47 | 0.00 | 92 | 1010.7 |
| 20260905064028 | 16 | 67 | 1.6 | 3.2 | 0.00 | 1.47 | 0.00 | 92 | 1010.7 |
| 20260905063524 | 16 | 42 | 0.0 | 3.2 | 0.00 | 1.47 | 0.00 | 93 | 1010.7 |
| 20260905063049 | 15 | 40 | 0.0 | 3.2 | 0.00 | 1.47 | 0.00 | 94 | 1010.7 |
| 20260905062525 | 15 | 0 | 0.0 | 3.2 | 0.00 | 1.47 | 0.00 | 93 | 1010.7 |
| 20260905062024 | 15 | 64 | 0.0 | 3.2 | 0.00 | 1.47 | 0.00 | 93 | 1010.7 |
| 20260905061600 | 16 | 64 | 0.0 | 3.2 | 0.00 | 1.47 | 0.00 | 93 | 1010.7 |
| 20260905061023 | 16 | 64 | 0.0 | 3.2 | 0.00 | 1.47 | 0.00 | 94 | 1010.8 |
| 20260905060524 | 16 | 76 | 0.0 | 3.2 | 0.00 | 1.47 | 0.00 | 94 | 1010.8 |
| 20260905060104 | 15 | 78 | 0.0 | 3.2 | 0.00 | 1.47 | 0.00 | 94 | 1011.0 |
| 20260905055524 | 15 | 0 | 0.0 | 3.2 | 0.00 | 1.47 | 0.00 | 93 | 1011.1 |
| 20260905055024 | 15 | 78 | 1.6 | 3.2 | 0.00 | 1.47 | 0.00 | 93 | 1011.1 |
| 20260905054555 | 16 | 78 | 1.6 | 3.2 | 0.00 | 1.47 | 0.00 | 94 | 1011.1 |
| 20260905054024 | 16 | 0 | 0.0 | 3.2 | 0.00 | 1.47 | 0.00 | 94 | 1011.1 |
| 20260905053524 | 16 | 0 | 0.0 | 3.2 | 0.00 | 1.47 | 0.00 | 94 | 1011.2 |
| 20260905053054 | 16 | 78 | 0.0 | 3.2 | 0.00 | 1.47 | 0.00 | 94 | 1011.4 |
| 20260905052525 | 16 | 78 | 0.0 | 3.2 | 0.00 | 1.47 | 0.00 | 93 | 1011.4 |
| 20260905052026 | 16 | 55 | 0.0 | 3.2 | 0.00 | 1.47 | 0.00 | 93 | 1011.4 |
| 20260905051606 | 16 | 46 | 0.0 | 3.2 | 0.00 | 1.47 | 0.00 | 93 | 1011.5 |
| 20260905051022 | 16 | 352 | 0.0 | 3.2 | 0.00 | 1.47 | 0.00 | 93 | 1011.5 |
| 20260905050524 | 16 | 344 | 0.0 | 3.2 | 0.00 | 1.47 | 0.00 | 93 | 1011.4 |
| 20260905050049 | 16 | 0 | 0.0 | 3.2 | 0.00 | 1.47 | 0.00 | 93 | 1011.4 |
| 20260905045525 | 16 | 344 | 0.0 | 3.2 | 0.00 | 1.47 | 0.00 | 93 | 1011.5 |
| 20260905045025 | 16 | 0 | 0.0 | 3.2 | 0.00 | 1.47 | 0.00 | 94 | 1011.5 |